SCP
0 0 0 -0 0 0 0 0 0 0 0 0 0 0 0 0 0 0 0 0 0 0 0 0 -0 -0 0
0 0 0 0 0 0 0 0 0 0 0 0 0 0 0 0 0 0 0 0 0 0 0 0 -0 -0 0
0 0 0 0 0 0 0 0 0 0 0 0 0 0 0 0 0 0 0 0 0 0 0 0 0 0 0
0 0 0 0 0 0 0 0 0 0 0 0 0 0 0 0 0 0 0 0 0 0 0 0 0 0 0
0 0 0 0 0 0 0 0 0 0 0 0 0 0 0 0 0 0 0 0 0 0 0 0 0 0 0
0 0 0 0 0 0 0 0 0 0 0 0 0 0 0 0 0 0 0 0 0 0 0 0 0 0 0
0 0 0 0 0 0 0 0 0 0 0 0 0 0 0 0 0 0 0 0 0 0 0 0 0 0 0
0 0 0 0 0 0 0 0 0 0 0 0 0 0 0 0 0 0 0 0 0 0 0 0 0 0 0
0 0 0 0 0 0 0 0 0 0 0 0 0 0 0 0 0 0 0 0 0 0 0 0 0 0 0
0 0 0 0 0 0 0 0 0 0 0 0 0 0 0 0 0 0 0 0 0 0 0 0 0 0 0
0 0 0 0 0 0 0 0 0 0 0 0 0 0 0 0 0 0 0 0 0 0 0 0 0 0 0
0 0 0 0 0 0 0 0 0 0 0 0 0 0 0 0 0 0 0 0 0 0 0 0 0 0 0
0 0 0 0 0 0 0 0 0 0 0 0 0 0 0 0 0 0 0 0 0 0 0 0 0 0 0
0 0 0 0 0 0 0 0 0 0 0 0 0 0 0 0 0 0 0 0 0 0 0 0 0 0 0
0 0 0 0 0 0 0 0 0 0 0 0 0 0 0 0 0 0 0 0 0 0 0 0 0 0 0
0 0 0 0 0 0 0 0 0 0 0 0 0 0 0 0 0 0 0 0 0 0 0 0 0 0 0
Wind_Speed_500mb
44 41 35 29 19 19 27 28 26 27 30 31 29 27 24 22 20 19 18 19 22 22 25 27 18 16 11
49 44 39 34 26 18 22 24 27 26 28 29 26 24 21 18 16 15 13 15 18 22 21 14 11 10 10
50 48 42 38 34 23 20 25 27 29 31 30 27 22 19 16 14 12 11 11 11 16 10 8 9 11 13
55 53 50 45 41 29 23 27 28 30 31 29 25 22 18 16 13 10 10 6 6 8 5 8 8 10 16
61 60 55 50 48 35 28 30 33 34 34 31 26 22 19 15 9 6 6 5 5 6 6 4 6 7 8
55 58 56 54 52 38 33 38 39 36 35 30 26 21 21 19 16 9 7 7 7 9 7 4 4 3 5
55 60 54 59 52 40 37 42 40 35 35 33 28 26 24 20 17 13 12 10 8 8 9 9 9 8 6
60 55 65 62 45 42 38 44 43 36 38 32 33 32 29 27 25 18 15 14 13 10 10 9 8 6 6
61 68 66 60 49 44 41 42 41 41 40 40 42 39 37 35 27 21 20 18 16 12 12 11 11 11 10
70 63 58 54 51 49 44 41 47 45 45 47 44 40 38 34 29 25 24 24 18 15 12 13 14 13 11
68 68 61 58 53 48 43 42 49 53 52 50 48 46 42 35 32 28 29 26 21 17 15 14 14 12 9
67 63 64 60 56 61 61 55 53 58 55 49 52 49 43 38 35 34 32 29 25 20 17 17 11 7 5
78 78 76 73 71 68 65 60 60 56 56 56 52 50 49 43 39 36 34 34 33 28 26 20 13 3 4
85 82 81 78 76 67 64 61 60 60 56 57 53 52 48 44 42 38 37 38 35 34 24 20 20 13 6
86 87 82 81 78 75 69 65 66 57 53 51 52 51 49 45 41 39 38 37 37 36 30 18 14 11 22
88 91 90 89 92 86 76 72 67 63 58 54 53 51 49 48 45 44 40 34 30 27 30 26 12 7 18
Wind_Direction_500mb
184 185 184 181 178 172 163 168 159 157 153 149 143 135 128 118 107 95 83 67 59 66 97 125 140 123 102
187 190 190 189 189 188 182 178 160 160 157 155 151 145 135 120 105 96 90 80 71 84 108 132 140 115 104
192 193 193 197 196 196 188 171 166 168 168 165 160 149 140 128 114 106 94 89 87 99 125 114 111 106 125
198 198 195 200 202 198 195 181 176 177 176 171 166 157 148 133 125 115 95 88 102 114 153 122 113 110 140
199 200 197 200 204 196 198 189 182 181 181 178 172 162 155 145 161 143 134 127 154 165 199 151 110 115 133
200 203 201 204 205 195 200 192 193 186 185 179 170 169 166 171 193 216 235 212 188 176 202 214 154 171 157
200 203 203 204 207 204 201 195 199 195 190 172 173 188 180 189 214 230 238 244 238 211 215 220 210 193 193
203 205 200 208 206 210 206 201 200 197 179 179 191 200 202 210 226 236 243 245 244 240 227 218 233 230 223
202 202 210 213 211 210 209 202 198 189 182 194 198 208 212 220 229 227 233 233 232 234 221 211 223 237 234
205 205 206 208 211 210 207 201 190 188 199 204 206 208 218 222 226 227 228 229 233 223 221 215 213 226 245
214 210 205 210 208 201 195 198 197 194 200 205 210 212 217 221 223 226 233 238 234 227 220 205 189 184 202
211 207 201 205 198 194 195 196 203 204 203 206 209 216 221 222 227 228 224 223 228 222 198 169 167 181 206
207 205 201 198 196 201 200 205 208 209 212 212 214 220 227 226 228 227 222 217 207 198 179 148 132 130 281
210 208 206 196 197 204 199 204 211 209 213 213 219 224 229 227 225 226 221 212 197 185 191 181 159 154 198
207 206 203 199 201 201 203 208 206 212 212 217 220 222 224 223 222 215 205 200 206 200 192 180 165 174 180
205 209 208 205 204 204 206 209 209 210 210 215 220 220 218 216 209 200 196 205 210 206 192 193 182 201 182
Wind_Speed_850mb
44 41 35 29 19 19 27 28 26 27 30 31 29 27 24 22 20 19 18 19 22 22 25 27 18 16 11
49 44 39 34 26 18 22 24 27 26 28 29 26 24 21 18 16 15 13 15 18 22 21 14 11 10 10
50 48 42 38 34 23 20 25 27 29 31 30 27 22 19 16 14 12 11 11 11 16 10 8 9 11 13
55 53 50 45 41 29 23 27 28 30 31 29 25 22 18 16 13 10 10 6 6 8 5 8 8 10 16
61 60 55 50 48 35 28 30 33 34 34 31 26 22 19 15 9 6 6 5 5 6 6 4 6 7 8
55 58 56 54 52 38 33 38 39 36 35 30 26 21 21 19 16 9 7 7 7 9 7 4 4 3 5
55 60 54 59 52 40 37 42 40 35 35 33 28 26 24 20 17 13 12 10 8 8 9 9 9 8 6
60 55 65 62 45 42 38 44 43 36 38 32 33 32 29 27 25 18 15 14 13 10 10 9 8 6 6
61 68 66 60 49 44 41 42 41 41 40 40 42 39 37 35 27 21 20 18 16 12 12 11 11 11 10
70 63 58 54 51 49 44 41 47 45 45 47 44 40 38 34 29 25 24 24 18 15 12 13 14 13 11
68 68 61 58 53 48 43 42 49 53 52 50 48 46 42 35 32 28 29 26 21 17 15 14 14 12 9
67 63 64 60 56 61 61 55 53 58 55 49 52 49 43 38 35 34 32 29 25 20 17 17 11 7 5
78 78 76 73 71 68 65 60 60 56 56 56 52 50 49 43 39 36 34 34 33 28 26 20 13 3 4
85 82 81 78 76 67 64 61 60 60 56 57 53 52 48 44 42 38 37 38 35 34 24 20 20 13 6
86 87 82 81 78 75 69 65 66 57 53 51 52 51 49 45 41 39 38 37 37 36 30 18 14 11 22
88 91 90 89 92 86 76 72 67 63 58 54 53 51 49 48 45 44 40 34 30 27 30 26 12 7 18
Wind_Direction_850mb
184 185 184 181 178 172 163 168 159 157 153 149 143 135 128 118 107 95 83 67 59 66 97 125 140 123 102
187 190 190 189 189 188 182 178 160 160 157 155 151 145 135 120 105 96 90 80 71 84 108 132 140 115 104
192 193 193 197 196 196 188 171 166 168 168 165 160 149 140 128 114 106 94 89 87 99 125 114 111 106 125
198 198 195 200 202 198 195 181 176 177 176 171 166 157 148 133 125 115 95 88 102 114 153 122 113 110 140
199 200 197 200 204 196 198 189 182 181 181 178 172 162 155 145 161 143 134 127 154 165 199 151 110 115 133
200 203 201 204 205 195 200 192 193 186 185 179 170 169 166 171 193 216 235 212 188 176 202 214 154 171 157
200 203 203 204 207 204 201 195 199 195 190 172 173 188 180 189 214 230 238 244 238 211 215 220 210 193 193
203 205 200 208 206 210 206 201 200 197 179 179 191 200 202 210 226 236 243 245 244 240 227 218 233 230 223
202 202 210 213 211 210 209 202 198 189 182 194 198 208 212 220 229 227 233 233 232 234 221 211 223 237 234
205 205 206 208 211 210 207 201 190 188 199 204 206 208 218 222 226 227 228 229 233 223 221 215 213 226 245
214 210 205 210 208 201 195 198 197 194 200 205 210 212 217 221 223 226 233 238 234 227 220 205 189 184 202
211 207 201 205 198 194 195 196 203 204 203 206 209 216 221 222 227 228 224 223 228 222 198 169 167 181 206
207 205 201 198 196 201 200 205 208 209 212 212 214 220 227 226 228 227 222 217 207 198 179 148 132 130 281
210 208 206 196 197 204 199 204 211 209 213 213 219 224 229 227 225 226 221 212 197 185 191 181 159 154 198
207 206 203 199 201 201 203 208 206 212 212 217 220 222 224 223 222 215 205 200 206 200 192 180 165 174 180
205 209 208 205 204 204 206 209 209 210 210 215 220 220 218 216 209 200 196 205 210 206 192 193 182 201 182